Wind_Speed
3 3 3 2 2 2 2 2 2 2 2 2 2 1 1 2 2 2 3 4 4 4 4 4 4 4 4 4 4 4 5 5 5 4 4 5 5 5 5 5 5 5 5
4 4 4 4 3 3 3 3 3 3 3 3 4 3 3 3 3 3 4 4 5 6 6 6 5 6 6 6 6 6 6 6 6 6 6 5 5 6 6 6 6 6 6
5 5 5 4 4 4 4 4 4 4 4 4 5 4 4 4 4 5 5 5 5 6 6 6 7 7 7 7 7 7 7 7 7 7 7 6 6 7 7 7 7 7 7
5 5 5 5 5 5 4 5 6 5 5 5 5 5 5 5 6 7 6 6 7 7 7 7 7 7 8 8 8 8 7 8 8 8 8 8 8 8 9 9 8 8 8
6 6 6 5 5 5 5 5 6 5 5 5 5 5 6 7 7 7 7 7 8 8 8 8 8 8 8 8 8 9 9 9 9 10 10 10 9 9 10 10 9 9 9
6 6 6 6 6 5 5 5 5 5 5 5 6 6 6 7 7 8 8 8 8 8 9 8 8 8 8 8 9 9 10 10 10 10 10 11 10 10 10 10 10 11 11
6 6 6 6 6 6 6 5 6 6 6 6 6 6 6 7 7 7 8 9 8 8 8 9 9 9 9 9 10 10 10 11 10 10 10 10 10 10 11 10 11 11 12
6 6 7 7 7 7 7 6 7 7 6 6 7 7 7 7 8 8 8 9 9 9 9 9 10 10 10 9 9 11 11 11 10 10 10 11 11 11 11 11 11 12 12
6 6 7 7 6 7 7 7 7 7 7 7 7 8 8 8 8 9 9 9 10 10 10 10 11 10 10 11 11 11 12 13 13 12 12 12 12 12 12 13 13 13 13
6 6 6 6 6 6 7 7 8 8 8 8 8 8 8 8 9 9 10 10 10 10 10 11 11 12 12 12 12 12 12 13 13 13 13 13 13 13 14 14 14 14 14
6 6 5 5 6 6 7 7 7 7 7 7 8 8 8 8 8 9 10 10 10 11 11 11 12 12 12 13 13 12 12 12 12 13 13 13 13 14 14 14 14 14 14
6 5 5 5 6 6 6 6 7 7 8 8 8 8 8 9 9 10 10 11 11 11 11 12 12 12 13 13 13 13 13 13 13 13 13 13 13 13 13 13 13 13 13
6 6 6 6 6 6 6 7 7 7 8 8 8 8 9 9 10 10 11 11 11 11 11 11 12 13 13 13 13 13 13 12 12 13 13 13 13 12 12 13 13 14 14
7 6 6 6 6 7 7 7 7 8 8 8 9 9 9 10 10 11 11 11 11 12 12 12 13 12 12 12 13 13 13 12 12 12 12 12 13 13 12 13 14 14 14
7 7 7 7 7 8 8 8 8 8 8 9 9 9 10 10 11 11 11 11 11 12 12 12 12 12 12 12 12 12 12 12 13 13 13 13 13 12 12 13 13 14 14
8 7 7 7 8 8 8 8 8 9 9 9 9 10 10 11 11 12 12 12 12 12 12 12 12 12 12 11 12 11 11 12 13 14 13 13 13 12 13 13 13 13 13
8 8 8 8 8 7 7 8 8 9 9 10 10 11 11 11 12 12 12 12 11 12 12 12 12 12 11 12 12 12 12 13 13 13 13 14 14 13 13 13 13 14 14
9 9 9 9 9 9 9 9 8 9 9 10 10 10 11 12 12 12 11 11 11 11 11 11 12 12 12 13 13 13 13 13 13 13 14 14 14 15 14 14 14 14 14
10 10 10 9 10 10 10 9 9 9 10 10 10 11 11 11 11 11 11 10 11 11 11 11 12 12 12 12 13 13 13 12 12 13 13 14 14 14 14 14 14 15 14
10 10 11 10 10 10 10 10 10 11 11 11 11 11 11 11 10 10 10 10 11 11 11 12 12 12 12 12 12 12 12 12 12 13 13 14 14 14 14 13 14 15 14
10 11 11 11 11 11 11 11 12 12 12 11 11 11 11 11 11 11 11 11 11 12 12 12 12 12 12 12 12 12 12 12 13 13 13 14 14 14 14 14 14 14 14
11 11 12 12 12 12 12 12 12 12 12 12 12 12 12 12 12 12 11 12 12 12 12 12 12 12 13 13 13 13 13 14 13 13 14 14 14 14 14 15 15 15 14
12 12 13 12 12 12 13 12 13 13 12 12 12 12 12 12 12 12 12 12 13 13 12 12 13 13 13 14 14 14 14 14 15 15 15 15 14 14 15 15 16 16 16
13 13 14 14 14 13 13 13 13 12 12 12 12 12 13 13 13 13 13 13 13 13 14 14 14 14 14 15 15 15 16 16 17 17 16 16 16 16 16 16 17 17 17
14 14 14 14 14 14 14 14 14 14 13 13 13 14 14 14 14 14 14 15 15 15 15 15 15 15 16 16 17 17 17 17 17 17 17 17 18 18 18 18 17 17 18
14 15 15 14 14 15 15 14 14 15 15 15 15 15 15 15 15 15 15 16 17 17 17 17 17 17 17 18 18 18 18 18 18 18 18 18 19 19 19 19 19 18 19
Wind_Direction
249 255 260 260 261 264 267 274 298 325 328 327 328 315 286 294 293 271 266 262 260 261 262 259 270 270 265 267 270 266 262 255 255 254 253 252 250 243 240 241 245 247 249
255 254 249 248 253 257 265 280 286 296 302 300 305 301 289 289 294 283 274 269 267 262 262 264 272 271 265 264 263 263 261 259 252 252 250 253 253 246 241 240 242 246 248
255 255 253 251 257 262 267 279 287 291 297 298 300 296 288 290 290 286 281 277 273 269 268 268 267 268 263 261 260 260 257 256 252 250 248 253 255 251 247 246 249 250 251
255 257 255 255 258 258 264 280 287 290 293 297 304 296 288 289 287 285 284 284 278 272 270 269 267 267 263 260 260 259 255 253 254 253 250 253 253 253 254 254 254 251 251
257 256 253 254 257 260 266 277 284 284 285 289 294 300 294 288 287 285 283 283 278 272 270 266 262 263 263 262 260 257 256 253 253 254 254 253 253 253 254 256 257 255 254
256 254 251 251 255 260 266 273 276 280 281 284 286 291 294 295 291 283 279 281 279 276 274 268 262 261 263 263 262 261 260 257 255 257 257 254 250 250 254 256 257 256 254
255 250 251 252 256 260 263 269 275 278 283 287 287 289 291 292 293 288 284 282 280 277 280 274 267 266 265 263 262 263 262 259 259 259 257 256 252 250 253 255 257 257 256
262 255 253 255 260 263 265 270 274 278 284 288 290 292 292 290 288 285 284 281 278 278 283 280 271 268 265 263 262 264 263 260 259 259 257 257 257 254 254 254 256 258 259
260 260 258 255 255 257 262 265 269 275 283 285 287 288 290 291 289 287 284 284 281 281 281 280 273 270 269 267 267 266 262 259 260 258 259 260 259 259 259 259 258 258 260
259 262 260 257 256 256 257 261 267 275 279 281 284 285 287 289 288 286 286 287 288 283 279 274 271 267 268 266 268 267 264 262 260 256 259 261 260 260 260 262 262 260 260
258 259 263 259 259 261 261 261 270 272 274 278 282 284 287 288 287 285 287 287 289 285 279 274 268 264 265 266 266 265 264 261 259 257 257 259 261 262 261 263 263 260 259
254 255 261 262 264 264 264 268 272 270 270 274 280 281 283 285 285 286 287 285 286 283 276 269 266 267 265 266 265 264 263 262 260 259 259 260 261 261 260 259 259 258 257
253 253 258 259 263 265 264 269 272 275 274 274 277 279 282 283 285 287 287 285 283 280 276 267 265 264 263 262 263 263 261 260 259 260 260 259 257 255 255 254 256 256 254
254 257 257 256 261 264 265 266 272 277 280 280 280 280 284 286 286 287 286 284 283 281 282 282 279 271 262 264 264 262 260 260 259 259 258 257 257 257 255 253 252 253 255
254 256 254 256 258 263 265 266 270 275 279 281 283 283 284 285 287 288 287 286 284 283 282 283 282 277 270 270 268 264 261 262 259 259 257 257 258 260 258 255 255 257 259
253 250 254 256 257 263 265 267 268 275 280 283 285 286 286 287 288 289 290 288 286 284 280 277 277 277 272 270 269 265 263 260 257 256 259 259 260 260 259 259 258 260 261
254 254 258 260 261 263 267 272 272 277 280 283 284 284 285 287 288 290 291 288 284 284 283 279 276 274 269 269 268 263 263 263 264 264 265 264 263 263 262 262 263 264 264
254 258 262 264 264 264 269 271 275 278 280 282 285 288 291 291 291 292 291 289 287 285 284 282 279 274 270 269 267 266 266 267 269 271 269 267 264 264 265 264 265 265 266
253 256 260 265 267 271 273 272 273 277 281 283 284 289 292 294 294 292 290 289 290 289 288 285 281 277 273 271 270 269 268 268 270 270 269 268 268 267 267 266 264 265 266
256 257 259 263 267 271 274 274 272 275 278 281 285 290 292 290 288 288 288 288 289 290 289 286 281 277 273 272 271 269 267 267 268 268 268 270 271 270 269 266 265 265 266
256 255 257 262 265 266 273 276 275 276 276 277 282 288 290 288 285 284 287 287 288 288 290 289 283 276 273 270 272 271 268 267 268 267 269 269 270 270 270 269 268 265 266
263 263 261 263 265 267 271 274 275 275 275 275 278 285 289 287 285 285 286 286 284 286 288 290 287 278 272 272 272 272 271 270 268 268 269 268 267 268 269 271 270 269 266
263 265 265 265 266 268 271 273 272 271 273 274 278 282 285 285 286 286 285 283 282 283 285 288 288 281 274 273 272 273 272 271 271 270 270 268 267 267 269 271 271 270 267
265 266 265 265 266 266 268 270 270 268 271 275 279 282 283 283 285 286 286 284 283 282 282 285 286 284 277 274 273 274 274 273 272 270 270 270 269 268 269 269 270 270 268
265 266 266 264 264 264 265 268 269 269 270 274 278 279 280 281 284 284 286 286 284 283 283 283 284 283 280 278 277 276 274 273 271 269 268 270 270 270 268 268 269 270 270
265 264 265 264 264 264 265 266 268 268 269 274 280 282 283 281 282 284 284 285 284 283 282 282 281 282 282 279 277 275 273 273 272 271 269 268 270 270 268 266 265 268 270
Height
5863 5863 5863 5863 5864 5864 5864 5864 5864 5865 5865 5865 5865 5865 5865 5865 5866 5866 5867 5867 5868 5868 5869 5869 5869 5870 5870 5870 5871 5871 5872 5872 5873 5873 5874 5874 5875 5875 5876 5876 5877 5877 5878
5862 5862 5863 5863 5863 5864 5864 5864 5864 5864 5864 5864 5864 5864 5865 5865 5865 5865 5866 5866 5867 5867 5868 5868 5868 5869 5869 5869 5870 5870 5871 5871 5872 5872 5873 5873 5874 5874 5875 5875 5876 5877 5877
5861 5862 5862 5862 5863 5863 5863 5864 5864 5864 5864 5864 5863 5863 5864 5864 5864 5865 5865 5865 5866 5866 5866 5867 5867 5868 5868 5868 5869 5869 5869 5870 5871 5871 5872 5872 5873 5873 5874 5874 5875 5875 5876
5860 5861 5861 5861 5862 5862 5862 5863 5863 5863 5863 5863 5863 5863 5863 5863 5863 5864 5864 5864 5864 5865 5865 5865 5866 5866 5866 5867 5867 5868 5868 5869 5869 5870 5870 5871 5871 5872 5872 5873 5873 5874 5874
5860 5860 5860 5861 5861 5861 5862 5862 5862 5862 5862 5862 5862 5862 5862 5862 5862 5862 5862 5863 5863 5863 5863 5863 5864 5864 5865 5865 5866 5866 5867 5867 5868 5868 5869 5869 5870 5870 5870 5871 5872 5872 5873
5859 5859 5859 5860 5860 5860 5861 5861 5861 5861 5861 5861 5861 5861 5861 5861 5861 5861 5861 5861 5861 5861 5861 5862 5862 5862 5863 5863 5864 5864 5865 5865 5866 5866 5867 5867 5868 5868 5869 5869 5870 5870 5871
5858 5858 5858 5859 5859 5859 5859 5859 5859 5859 5859 5859 5859 5859 5859 5859 5859 5859 5859 5859 5860 5860 5860 5860 5860 5860 5861 5861 5862 5862 5862 5863 5864 5864 5865 5865 5866 5866 5867 5867 5868 5868 5869
5857 5857 5857 5857 5858 5858 5858 5858 5858 5858 5858 5858 5858 5858 5858 5858 5858 5858 5858 5858 5858 5857 5858 5857 5858 5858 5858 5859 5859 5860 5860 5861 5861 5862 5863 5863 5864 5864 5864 5865 5865 5866 5866
5856 5856 5856 5856 5856 5856 5857 5857 5857 5857 5857 5857 5857 5857 5857 5857 5856 5856 5856 5856 5856 5856 5856 5856 5855 5856 5856 5857 5857 5857 5858 5858 5859 5860 5860 5861 5861 5862 5862 5862 5862 5863 5864
5854 5854 5854 5854 5855 5855 5855 5855 5855 5855 5855 5855 5855 5855 5855 5855 5855 5854 5854 5854 5854 5854 5853 5853 5853 5853 5854 5854 5854 5855 5855 5856 5856 5857 5858 5858 5859 5859 5859 5859 5859 5860 5861
5853 5853 5853 5853 5853 5853 5853 5853 5854 5854 5854 5854 5854 5854 5853 5853 5853 5852 5852 5852 5852 5851 5851 5851 5850 5851 5851 5851 5851 5852 5852 5853 5853 5854 5855 5855 5856 5856 5856 5856 5856 5856 5857
5852 5852 5852 5852 5852 5852 5852 5852 5852 5852 5852 5852 5852 5852 5852 5851 5851 5850 5850 5850 5849 5849 5848 5848 5848 5848 5849 5849 5849 5849 5849 5850 5851 5851 5852 5853 5853 5853 5852 5853 5853 5853 5854
5850 5850 5850 5851 5851 5850 5851 5851 5851 5851 5851 5850 5850 5850 5850 5849 5849 5848 5848 5847 5847 5846 5846 5845 5845 5845 5846 5846 5846 5846 5846 5847 5848 5848 5849 5849 5850 5849 5849 5849 5850 5850 5851
5848 5849 5849 5849 5849 5849 5849 5849 5849 5849 5849 5848 5848 5848 5847 5847 5846 5846 5845 5845 5844 5844 5843 5843 5843 5843 5842 5843 5843 5843 5843 5844 5845 5845 5846 5846 5846 5847 5846 5846 5847 5847 5848
5847 5847 5847 5847 5847 5847 5847 5847 5847 5847 5847 5846 5846 5845 5845 5845 5844 5843 5843 5842 5841 5841 5840 5840 5840 5840 5839 5839 5840 5840 5840 5841 5842 5842 5843 5843 5843 5843 5843 5844 5844 5845 5845
5845 5845 5845 5845 5845 5845 5845 5845 5845 5845 5845 5844 5844 5843 5842 5842 5841 5840 5840 5839 5838 5837 5837 5837 5836 5837 5837 5837 5837 5837 5837 5838 5838 5839 5839 5840 5840 5840 5840 5841 5841 5842 5842
5842 5843 5843 5843 5843 5843 5843 5843 5843 5843 5842 5842 5841 5841 5840 5839 5838 5837 5836 5836 5835 5834 5834 5833 5833 5833 5833 5834 5834 5834 5835 5835 5835 5836 5836 5836 5837 5837 5837 5838 5838 5838 5839
5841 5841 5841 5841 5841 5841 5841 5841 5841 5840 5840 5840 5839 5838 5837 5836 5835 5834 5833 5833 5832 5831 5831 5830 5830 5830 5830 5830 5831 5831 5831 5832 5832 5833 5833 5833 5833 5834 5834 5834 5835 5835 5835
5839 5839 5839 5839 5839 5839 5839 5839 5838 5838 5837 5837 5836 5835 5834 5833 5832 5832 5831 5830 5829 5829 5828 5828 5827 5827 5827 5827 5827 5827 5828 5829 5829 5829 5830 5830 5830 5830 5831 5831 5831 5832 5832
5837 5837 5837 5837 5837 5837 5836 5836 5836 5835 5835 5834 5833 5832 5832 5831 5830 5829 5828 5827 5827 5826 5825 5825 5824 5824 5823 5823 5824 5824 5825 5825 5825 5826 5826 5826 5827 5827 5827 5828 5828 5828 5828
5834 5834 5834 5835 5834 5834 5834 5833 5833 5833 5832 5832 5831 5830 5829 5828 5827 5826 5826 5825 5824 5823 5823 5822 5821 5820 5820 5820 5821 5821 5821 5822 5822 5822 5823 5823 5823 5824 5824 5824 5824 5824 5825
5831 5831 5831 5831 5831 5831 5831 5831 5830 5830 5829 5828 5828 5827 5826 5825 5824 5824 5823 5822 5821 5821 5820 5819 5817 5817 5817 5817 5817 5818 5818 5819 5819 5819 5819 5819 5820 5820 5820 5821 5821 5821 5821
5828 5828 5828 5828 5828 5828 5828 5828 5827 5826 5826 5825 5824 5824 5823 5822 5821 5821 5820 5819 5818 5818 5817 5816 5815 5814 5814 5814 5814 5814 5814 5814 5814 5815 5815 5815 5816 5816 5816 5817 5817 5817 5817
5825 5825 5825 5825 5825 5824 5824 5824 5824 5823 5823 5822 5821 5820 5820 5819 5818 5817 5816 5816 5815 5814 5813 5812 5811 5810 5810 5810 5810 5810 5810 5810 5810 5810 5811 5811 5811 5811 5812 5812 5812 5813 5813
5821 5821 5821 5821 5821 5821 5821 5821 5820 5820 5819 5819 5818 5817 5816 5815 5814 5813 5813 5812 5811 5810 5810 5809 5808 5807 5806 5806 5805 5805 5805 5805 5805 5806 5806 5806 5806 5807 5807 5807 5808 5808 5808
5817 5817 5817 5817 5817 5817 5817 5817 5817 5816 5815 5815 5814 5813 5812 5811 5811 5810 5809 5808 5807 5806 5805 5804 5804 5803 5802 5801 5801 5800 5800 5800 5800 5800 5801 5801 5801 5802 5802 5802 5802 5803 5803